Time,TemperatureF,DewpointF,PressureIn,WindDirection,WindDirectionDegrees,WindSpeedMPH,WindSpeedGustMPH,Humidity,HourlyPrecipIn,Conditions,Clouds,dailyrainin,SoftwareType,DateUTC
2013-07-11 00:02:00,85.2,40.9,29.75,West,271,9.0,9.0,21,0.00,,CLR,0.00,VWS V14.01,2013-07-11 07:02:00,
2013-07-11 00:07:00,85.2,40.9,29.75,West,269,0.0,9.0,21,0.00,,CLR,0.00,VWS V14.01,2013-07-11 07:07:00,
2013-07-11 00:12:00,85.1,40.8,29.75,West,269,0.0,1.0,21,0.00,,CLR,0.00,VWS V14.01,2013-07-11 07:12:00,
2013-07-11 00:17:00,85.0,40.7,29.75,West,269,0.0,1.0,21,0.00,,CLR,0.00,VWS V14.01,2013-07-11 07:17:00,
2013-07-11 00:22:00,84.8,41.8,29.75,West,268,0.0,4.0,22,0.00,,CLR,0.00,VWS V14.01,2013-07-11 07:22:00,
2013-07-11 00:27:00,84.7,41.7,29.74,West,266,0.0,4.0,22,0.00,,CLR,0.00,VWS V14.01,2013-07-11 07:27:00,
2013-07-11 00:32:00,84.7,41.7,29.74,West,264,0.0,6.0,22,0.00,,CLR,0.00,VWS V14.01,2013-07-11 07:32:00,
2013-07-11 00:37:00,84.7,41.7,29.74,West,264,0.0,6.0,22,0.00,,CLR,0.00,VWS V14.01,2013-07-11 07:37:00,
2013-07-11 00:43:00,84.7,41.7,29.74,West,265,3.0,3.0,22,0.00,,CLR,0.00,VWS V14.01,2013-07-11 07:43:00,
2013-07-11 00:48:00,84.7,40.5,29.74,West,269,0.0,6.0,21,0.00,,CLR,0.00,VWS V14.01,2013-07-11 07:48:00,
2013-07-11 00:53:00,84.8,39.3,29.74,West,269,8.0,8.0,20,0.00,,CLR,0.00,VWS V14.01,2013-07-11 07:53:00,
2013-07-11 00:58:00,85.0,39.5,29.74,West,277,0.0,11.0,20,0.00,,CLR,0.00,VWS V14.01,2013-07-11 07:58:00,
2013-07-11 01:03:00,85.0,39.5,29.74,West,277,0.0,2.0,20,0.00,,FEW090,0.00,VWS V14.01,2013-07-11 08:03:00,
2013-07-11 01:08:00,85.0,41.9,29.73,West,277,0.0,2.0,22,0.00,,FEW090,0.00,VWS V14.01,2013-07-11 08:08:00,
2013-07-11 01:13:00,84.8,40.6,29.73,West,277,0.0,0.0,21,0.00,,FEW090,0.00,VWS V14.01,2013-07-11 08:13:00,
2013-07-11 01:18:00,84.5,40.3,29.73,West,277,0.0,4.0,21,0.00,,FEW090,0.00,VWS V14.01,2013-07-11 08:18:00,
2013-07-11 01:23:00,84.2,41.3,29.74,West,277,0.0,1.0,22,0.00,,FEW090,0.00,VWS V14.01,2013-07-11 08:23:00,
2013-07-11 01:28:00,84.2,41.3,29.74,West,277,0.0,4.0,22,0.00,,FEW090,0.00,VWS V14.01,2013-07-11 08:28:00,
2013-07-11 01:33:00,84.1,42.3,29.73,West,277,0.0,0.0,23,0.00,,FEW090,0.00,VWS V14.01,2013-07-11 08:33:00,
2013-07-11 01:38:00,83.9,42.2,29.72,West,277,0.0,0.0,23,0.00,,FEW090,0.00,VWS V14.01,2013-07-11 08:38:00,
2013-07-11 01:43:00,83.6,41.9,29.72,West,277,0.0,0.0,23,0.00,,FEW090,0.00,VWS V14.01,2013-07-11 08:43:00,
2013-07-11 01:48:00,83.3,41.7,29.72,West,277,0.0,1.0,23,0.00,,FEW090,0.00,VWS V14.01,2013-07-11 08:48:00,
2013-07-11 01:53:00,83.4,42.9,29.72,West,277,2.0,2.0,24,0.00,,FEW090,0.00,VWS V14.01,2013-07-11 08:53:00,
2013-07-11 01:58:00,83.5,43.0,29.71,West,277,4.0,7.0,24,0.00,,FEW090,0.00,VWS V14.01,2013-07-11 08:58:00,
2013-07-11 02:03:00,83.9,41.0,29.70,West,273,0.0,7.0,22,0.00,,FEW100,0.00,VWS V14.01,2013-07-11 09:03:00,
2013-07-11 02:09:00,84.3,41.4,29.71,WSW,256,1.0,8.0,22,0.00,,FEW100,0.00,VWS V14.01,2013-07-11 09:09:00,
2013-07-11 02:14:00,84.5,41.5,29.72,South,190,0.0,5.0,22,0.00,,FEW100,0.00,VWS V14.01,2013-07-11 09:14:00,
2013-07-11 02:19:00,84.4,44.8,29.72,South,169,1.0,10.0,25,0.00,,FEW100,0.00,VWS V14.01,2013-07-11 09:19:00,
2013-07-11 02:24:00,84.0,47.4,29.72,South,188,3.0,11.0,28,0.00,,FEW100,0.00,VWS V14.01,2013-07-11 09:24:00,
2013-07-11 02:29:00,83.4,47.8,29.72,South,171,0.0,11.0,29,0.00,,FEW100,0.00,VWS V14.01,2013-07-11 09:29:00,
2013-07-11 02:34:00,82.8,47.3,29.72,SSW,198,0.0,5.0,29,0.00,,FEW100,0.00,VWS V14.01,2013-07-11 09:34:00,
2013-07-11 02:39:00,82.5,48.0,29.71,SW,215,0.0,5.0,30,0.00,,FEW100,0.00,VWS V14.01,2013-07-11 09:39:00,
2013-07-11 02:44:00,82.2,47.7,29.72,SW,216,1.0,3.0,30,0.00,,FEW100,0.00,VWS V14.01,2013-07-11 09:44:00,
2013-07-11 02:49:00,82.0,49.3,29.71,SW,221,2.0,9.0,32,0.00,,FEW100,0.00,VWS V14.01,2013-07-11 09:49:00,
2013-07-11 02:54:00,81.2,50.2,29.71,SW,235,1.0,17.0,34,0.00,,FEW100,0.00,VWS V14.01,2013-07-11 09:54:00,
2013-07-11 02:59:00,80.6,50.5,29.71,SSW,206,10.0,17.0,35,0.00,,FEW100,0.00,VWS V14.01,2013-07-11 09:59:00,
2013-07-11 03:04:00,80.0,49.1,29.71,WSW,250,2.0,15.0,34,0.00,,FEW110,0.00,VWS V14.01,2013-07-11 10:04:00,
2013-07-11 03:09:00,79.7,50.4,29.70,WSW,237,5.0,15.0,36,0.00,,FEW110,0.00,VWS V14.01,2013-07-11 10:09:00,
2013-07-11 03:14:00,78.8,53.1,29.71,SW,227,4.0,14.0,41,0.00,,FEW110,0.00,VWS V14.01,2013-07-11 10:14:00,
2013-07-11 03:19:00,77.8,52.2,29.71,SW,220,10.0,19.0,41,0.00,,FEW110,0.00,VWS V14.01,2013-07-11 10:19:00,
2013-07-11 03:25:00,77.0,51.5,29.71,WSW,239,4.0,19.0,41,0.00,,FEW110,0.00,VWS V14.01,2013-07-11 10:25:00,
2013-07-11 03:30:00,77.0,51.5,29.71,SSW,213,2.0,20.0,41,0.00,,FEW110,0.00,VWS V14.01,2013-07-11 10:30:00,
2013-07-11 03:35:00,77.0,51.5,29.72,SW,229,1.0,13.0,41,0.00,,FEW110,0.00,VWS V14.01,2013-07-11 10:35:00,
2013-07-11 03:40:00,76.9,51.4,29.72,SSW,211,9.0,13.0,41,0.00,,FEW110,0.00,VWS V14.01,2013-07-11 10:40:00,
2013-07-11 03:45:00,76.5,52.4,29.72,SW,220,6.0,19.0,43,0.00,,FEW110,0.00,VWS V14.01,2013-07-11 10:45:00,
2013-07-11 03:50:00,76.1,52.6,29.71,SW,224,2.0,19.0,44,0.00,,FEW110,0.00,VWS V14.01,2013-07-11 10:50:00,
2013-07-11 03:55:00,75.7,52.3,29.71,SW,222,0.0,13.0,44,0.00,,FEW110,0.00,VWS V14.01,2013-07-11 10:55:00,
2013-07-11 04:00:00,75.7,49.7,29.70,WSW,254,6.0,14.0,40,0.00,,FEW110,0.00,VWS V14.01,2013-07-11 11:00:00,
2013-07-11 04:05:00,77.1,48.1,29.70,SW,231,2.0,14.0,36,0.00,,CLR,0.00,VWS V14.01,2013-07-11 11:05:00,
2013-07-11 04:10:00,78.4,49.3,29.70,SW,229,7.0,7.0,36,0.00,,CLR,0.00,VWS V14.01,2013-07-11 11:10:00,
2013-07-11 04:15:00,78.9,49.0,29.70,WSW,239,3.0,15.0,35,0.00,,CLR,0.00,VWS V14.01,2013-07-11 11:15:00,
2013-07-11 04:20:00,79.3,50.1,29.70,WSW,253,0.0,7.0,36,0.00,,CLR,0.00,VWS V14.01,2013-07-11 11:20:00,
2013-07-11 04:25:00,79.6,50.3,29.70,SW,235,14.0,16.0,36,0.00,,CLR,0.00,VWS V14.01,2013-07-11 11:25:00,
2013-07-11 04:31:00,80.1,51.5,29.70,WSW,237,0.0,3.0,37,0.00,,CLR,0.00,VWS V14.01,2013-07-11 11:31:00,
2013-07-11 04:36:00,79.8,52.0,29.71,SSE,153,0.0,7.0,38,0.00,,CLR,0.00,VWS V14.01,2013-07-11 11:36:00,
2013-07-11 04:41:00,79.3,52.9,29.71,SSE,155,0.0,0.0,40,0.00,,CLR,0.00,VWS V14.01,2013-07-11 11:41:00,
2013-07-11 04:46:00,78.5,52.9,29.71,ESE,112,0.0,6.0,41,0.00,,CLR,0.00,VWS V14.01,2013-07-11 11:46:00,
2013-07-11 04:51:00,78.0,53.1,29.70,East,101,0.0,0.0,42,0.00,,CLR,0.00,VWS V14.01,2013-07-11 11:51:00,
2013-07-11 04:56:00,77.5,53.3,29.71,SE,124,1.0,2.0,43,0.00,,CLR,0.00,VWS V14.01,2013-07-11 11:56:00,
2013-07-11 05:01:00,77.2,51.7,29.72,ESE,116,0.0,0.0,41,0.00,,CLR,0.00,VWS V14.01,2013-07-11 12:01:00,
2013-07-11 05:06:00,77.1,52.3,29.72,SSE,155,4.0,6.0,42,0.00,,CLR,0.00,VWS V14.01,2013-07-11 12:06:00,
2013-07-11 05:11:00,77.1,52.9,29.72,SSE,153,0.0,0.0,43,0.00,,CLR,0.00,VWS V14.01,2013-07-11 12:11:00,
2013-07-11 05:16:00,76.9,52.7,29.72,SSE,153,0.0,1.0,43,0.00,,CLR,0.00,VWS V14.01,2013-07-11 12:16:00,
2013-07-11 05:21:00,76.7,53.8,29.73,SSE,153,0.0,0.0,45,0.00,,CLR,0.00,VWS V14.01,2013-07-11 12:21:00,
2013-07-11 05:26:00,76.4,54.7,29.73,SSE,153,0.0,4.0,47,0.00,,CLR,0.00,VWS V14.01,2013-07-11 12:26:00,
2013-07-11 05:31:00,76.2,55.1,29.72,SSE,153,0.0,2.0,48,0.00,,CLR,0.00,VWS V14.01,2013-07-11 12:31:00,
2013-07-11 05:36:00,75.8,56.4,29.72,SSE,153,0.0,2.0,51,0.00,,CLR,0.00,VWS V14.01,2013-07-11 12:36:00,
2013-07-11 05:41:00,75.4,57.6,29.72,SSE,153,0.0,0.0,54,0.00,,CLR,0.00,VWS V14.01,2013-07-11 12:41:00,
2013-07-11 05:46:00,74.7,56.5,29.73,SSE,152,0.0,0.0,53,0.00,,CLR,0.00,VWS V14.01,2013-07-11 12:46:00,
2013-07-11 05:52:00,74.4,55.1,29.73,SSE,151,5.0,7.0,51,0.00,,CLR,0.00,VWS V14.01,2013-07-11 12:52:00,
2013-07-11 05:57:00,74.1,54.3,29.73,SSE,154,4.0,7.0,50,0.00,,CLR,0.00,VWS V14.01,2013-07-11 12:57:00,
2013-07-11 06:03:00,74.0,52.5,29.73,SSE,154,0.0,2.0,47,0.00,,FEW060,0.00,VWS V14.01,2013-07-11 13:03:00,
2013-07-11 06:09:00,74.1,54.3,29.73,SSE,154,0.0,2.0,50,0.00,,FEW060,0.00,VWS V14.01,2013-07-11 13:09:00,
2013-07-11 06:14:00,74.1,51.4,29.72,SSE,155,0.0,1.0,45,0.00,,FEW060,0.00,VWS V14.01,2013-07-11 13:14:00,
2013-07-11 06:19:00,74.3,53.4,29.72,SSE,155,0.0,1.0,48,0.00,,FEW060,0.00,VWS V14.01,2013-07-11 13:19:00,
2013-07-11 06:24:00,74.4,53.5,29.73,SSE,155,0.0,1.0,48,0.00,,FEW060,0.00,VWS V14.01,2013-07-11 13:24:00,
2013-07-11 06:30:00,74.3,54.5,29.73,SSE,154,0.0,5.0,50,0.00,,FEW060,0.00,VWS V14.01,2013-07-11 13:30:00,
2013-07-11 06:35:00,74.2,53.8,29.73,SSE,154,0.0,1.0,49,0.00,,FEW060,0.00,VWS V14.01,2013-07-11 13:35:00,
2013-07-11 06:40:00,74.0,54.2,29.73,SSE,154,0.0,0.0,50,0.00,,FEW060,0.00,VWS V14.01,2013-07-11 13:40:00,
2013-07-11 06:45:00,74.0,55.3,29.73,SSE,154,0.0,0.0,52,0.00,,FEW060,0.00,VWS V14.01,2013-07-11 13:45:00,
2013-07-11 06:50:00,73.9,55.7,29.74,SSE,154,0.0,0.0,53,0.00,,FEW060,0.00,VWS V14.01,2013-07-11 13:50:00,
2013-07-11 06:55:00,73.7,50.5,29.74,SSW,206,1.0,3.0,44,0.00,,FEW060,0.00,VWS V14.01,2013-07-11 13:55:00,
2013-07-11 07:01:00,74.2,51.5,29.74,SW,215,0.0,0.0,45,0.00,,CLR,0.00,VWS V14.01,2013-07-11 14:01:00,
2013-07-11 07:06:00,74.6,52.5,29.75,SW,215,0.0,0.0,46,0.00,,CLR,0.00,VWS V14.01,2013-07-11 14:06:00,
2013-07-11 07:12:00,74.6,53.6,29.75,SSW,194,0.0,0.0,48,0.00,,CLR,0.00,VWS V14.01,2013-07-11 14:12:00,
2013-07-11 07:18:00,74.6,54.2,29.75,SSW,194,0.0,0.0,49,0.00,,CLR,0.00,VWS V14.01,2013-07-11 14:18:00,
2013-07-11 07:24:00,74.5,54.7,29.75,SSW,194,0.0,0.0,50,0.00,,CLR,0.00,VWS V14.01,2013-07-11 14:24:00,
2013-07-11 07:29:00,74.4,54.6,29.76,SSW,194,1.0,1.0,50,0.00,,CLR,0.00,VWS V14.01,2013-07-11 14:29:00,
2013-07-11 07:34:00,74.5,51.8,29.76,SW,228,0.0,3.0,45,0.00,,CLR,0.00,VWS V14.01,2013-07-11 14:34:00,
2013-07-11 07:39:00,74.6,52.5,29.76,SW,228,0.0,3.0,46,0.00,,CLR,0.00,VWS V14.01,2013-07-11 14:39:00,
2013-07-11 07:46:00,74.8,52.1,29.77,SSW,196,0.0,2.0,45,0.00,,CLR,0.00,VWS V14.01,2013-07-11 14:46:00,
2013-07-11 07:51:00,74.8,53.2,29.76,SSW,196,0.0,0.0,47,0.00,,CLR,0.00,VWS V14.01,2013-07-11 14:51:00,
2013-07-11 07:56:00,74.9,52.8,29.77,SSW,196,0.0,0.0,46,0.00,,CLR,0.00,VWS V14.01,2013-07-11 14:56:00,
2013-07-11 08:03:00,75.0,52.8,29.77,SSW,212,1.0,1.0,46,0.00,,FEW120,0.00,VWS V14.01,2013-07-11 15:03:00,
2013-07-11 08:09:00,75.1,51.7,29.77,SW,225,0.0,6.0,44,0.00,,FEW120,0.00,VWS V14.01,2013-07-11 15:09:00,
2013-07-11 08:14:00,75.1,51.7,29.77,SW,232,0.0,10.0,44,0.00,,FEW120,0.00,VWS V14.01,2013-07-11 15:14:00,
2013-07-11 08:19:00,75.2,51.2,29.77,SW,228,3.0,10.0,43,0.00,,FEW120,0.00,VWS V14.01,2013-07-11 15:19:00,
2013-07-11 08:24:00,75.1,51.1,29.77,SW,225,1.0,6.0,43,0.00,,FEW120,0.00,VWS V14.01,2013-07-11 15:24:00,
2013-07-11 08:30:00,75.2,50.6,29.77,SW,221,2.0,13.0,42,0.02,,FEW120,0.02,VWS V14.01,2013-07-11 15:30:00,
2013-07-11 08:35:00,75.3,50.7,29.77,SW,229,2.0,11.0,42,0.02,,FEW120,0.02,VWS V14.01,2013-07-11 15:35:00,
2013-07-11 08:40:00,75.4,50.1,29.77,SW,220,0.0,4.0,41,0.02,,FEW120,0.02,VWS V14.01,2013-07-11 15:40:00,
2013-07-11 08:45:00,75.5,50.8,29.77,SW,217,0.0,5.0,42,0.02,,FEW120,0.02,VWS V14.01,2013-07-11 15:45:00,
2013-07-11 08:50:00,75.7,50.4,29.77,SW,222,0.0,4.0,41,0.02,,FEW120,0.02,VWS V14.01,2013-07-11 15:50:00,
2013-07-11 08:58:00,76.1,50.0,29.77,SW,227,4.0,10.0,40,0.02,,FEW120,0.02,VWS V14.01,2013-07-11 15:58:00,
2013-07-11 09:03:00,76.4,50.3,29.77,SSW,196,0.0,6.0,40,0.02,,BKN120,0.02,VWS V14.01,2013-07-11 16:03:00,
2013-07-11 09:10:00,76.9,50.1,29.77,WSW,246,1.0,7.0,39,0.02,,BKN120,0.02,VWS V14.01,2013-07-11 16:10:00,
2013-07-11 09:15:00,77.3,49.7,29.76,SW,232,5.0,6.0,38,0.02,,BKN120,0.02,VWS V14.01,2013-07-11 16:15:00,
2013-07-11 09:20:00,77.8,50.2,29.76,SW,236,1.0,1.0,38,0.02,,BKN120,0.02,VWS V14.01,2013-07-11 16:20:00,
2013-07-11 09:25:00,78.1,50.5,29.77,SW,227,2.0,3.0,38,0.02,,BKN120,0.02,VWS V14.01,2013-07-11 16:25:00,
2013-07-11 09:30:00,78.4,51.4,29.77,SW,223,3.0,6.0,39,0.00,,BKN120,0.02,VWS V14.01,2013-07-11 16:30:00,
2013-07-11 09:35:00,78.2,51.9,29.77,SW,233,0.0,7.0,40,0.00,,BKN120,0.02,VWS V14.01,2013-07-11 16:35:00,
2013-07-11 09:43:00,77.9,51.0,29.77,SW,230,0.0,7.0,39,0.00,,BKN120,0.02,VWS V14.01,2013-07-11 16:43:00,
2013-07-11 09:48:00,77.6,50.7,29.77,SW,231,3.0,7.0,39,0.00,,BKN120,0.02,VWS V14.01,2013-07-11 16:48:00,
2013-07-11 09:53:00,77.5,50.6,29.77,South,185,2.0,5.0,39,0.00,,BKN120,0.02,VWS V14.01,2013-07-11 16:53:00,
2013-07-11 09:58:00,77.5,50.6,29.77,SW,223,0.0,10.0,39,0.00,,BKN120,0.02,VWS V14.01,2013-07-11 16:58:00,
2013-07-11 10:04:00,77.5,49.9,29.78,SW,220,2.0,5.0,38,0.00,,BKN110,0.02,VWS V14.01,2013-07-11 17:04:00,
2013-07-11 10:09:00,77.8,50.2,29.78,SSE,161,1.0,8.0,38,0.00,,BKN110,0.02,VWS V14.01,2013-07-11 17:09:00,
2013-07-11 10:16:00,78.1,50.5,29.78,SSW,210,0.0,10.0,38,0.00,,BKN110,0.02,VWS V14.01,2013-07-11 17:16:00,
2013-07-11 10:22:00,78.4,52.1,29.78,SSW,205,2.0,3.0,40,0.00,,BKN110,0.02,VWS V14.01,2013-07-11 17:22:00,
2013-07-11 10:27:00,78.3,52.0,29.78,SW,216,1.0,11.0,40,0.00,,BKN110,0.02,VWS V14.01,2013-07-11 17:27:00,
2013-07-11 10:32:00,78.1,51.2,29.78,SW,225,7.0,9.0,39,0.00,,OVC110,0.02,VWS V14.01,2013-07-11 17:32:00,
2013-07-11 10:37:00,78.0,51.1,29.78,SW,225,1.0,10.0,39,0.00,,OVC110,0.02,VWS V14.01,2013-07-11 17:37:00,
2013-07-11 10:42:00,78.1,51.2,29.78,SW,229,3.0,8.0,39,0.00,,OVC110,0.02,VWS V14.01,2013-07-11 17:42:00,
2013-07-11 10:47:00,78.2,50.5,29.78,South,182,0.0,8.0,38,0.00,,OVC110,0.02,VWS V14.01,2013-07-11 17:47:00,
2013-07-11 10:54:00,78.4,50.0,29.78,SW,229,1.0,10.0,37,0.00,,OVC110,0.02,VWS V14.01,2013-07-11 17:54:00,
2013-07-11 10:59:00,78.7,50.3,29.78,SSW,213,3.0,10.0,37,0.00,,OVC110,0.02,VWS V14.01,2013-07-11 17:59:00,
2013-07-11 11:04:00,78.9,48.2,29.79,SW,226,5.0,5.0,34,0.00,,BKN110,0.02,VWS V14.01,2013-07-11 18:04:00,
2013-07-11 11:09:00,79.2,48.4,29.79,SW,217,0.0,7.0,34,0.00,,BKN110,0.02,VWS V14.01,2013-07-11 18:09:00,
2013-07-11 11:15:00,79.3,46.1,29.79,SW,227,1.0,5.0,31,0.00,,BKN110,0.02,VWS V14.01,2013-07-11 18:15:00,
2013-07-11 11:20:00,79.4,47.8,29.79,SW,223,1.0,7.0,33,0.00,,BKN110,0.02,VWS V14.01,2013-07-11 18:20:00,
2013-07-11 11:25:00,79.6,48.0,29.79,SW,215,0.0,6.0,33,0.00,,BKN110,0.02,VWS V14.01,2013-07-11 18:25:00,
2013-07-11 11:30:00,79.8,49.7,29.79,SSW,211,0.0,4.0,35,0.00,,BKN110,0.02,VWS V14.01,2013-07-11 18:30:00,
2013-07-11 11:35:00,79.9,49.8,29.79,SSW,200,0.0,4.0,35,0.00,,BKN110,0.02,VWS V14.01,2013-07-11 18:35:00,
2013-07-11 11:40:00,80.1,50.8,29.80,SSW,212,4.0,4.0,36,0.00,,BKN110,0.02,VWS V14.01,2013-07-11 18:40:00,
2013-07-11 11:46:00,80.2,51.6,29.80,SW,234,0.0,7.0,37,0.00,,BKN110,0.02,VWS V14.01,2013-07-11 18:46:00,
2013-07-11 11:51:00,80.3,53.1,29.80,SSW,198,0.0,2.0,39,0.00,,BKN110,0.02,VWS V14.01,2013-07-11 18:51:00,
2013-07-11 11:56:00,80.3,51.7,29.80,SSW,198,3.0,7.0,37,0.00,,BKN110,0.02,VWS V14.01,2013-07-11 18:56:00,
2013-07-11 12:01:00,80.5,52.6,29.80,SSW,209,0.0,0.0,38,0.00,,OVC110,0.02,VWS V14.01,2013-07-11 19:01:00,
2013-07-11 12:06:00,80.8,52.1,29.79,SW,215,0.0,3.0,37,0.00,,OVC110,0.02,VWS V14.01,2013-07-11 19:06:00,
2013-07-11 12:13:00,81.2,52.5,29.80,SSW,207,0.0,6.0,37,0.00,,OVC110,0.02,VWS V14.01,2013-07-11 19:13:00,
2013-07-11 12:18:00,81.8,54.5,29.80,South,190,2.0,6.0,39,0.00,,OVC110,0.02,VWS V14.01,2013-07-11 19:18:00,
2013-07-11 12:23:00,82.0,53.2,29.80,SSW,211,0.0,4.0,37,0.00,,OVC110,0.02,VWS V14.01,2013-07-11 19:23:00,
2013-07-11 12:28:00,82.5,54.4,29.80,SSW,205,3.0,4.0,38,0.00,,OVC110,0.02,VWS V14.01,2013-07-11 19:28:00,
2013-07-11 12:33:00,82.7,53.8,29.80,SSE,167,2.0,6.0,37,0.00,,OVC110,0.02,VWS V14.01,2013-07-11 19:33:00,
2013-07-11 12:38:00,83.1,53.4,29.80,South,169,0.0,6.0,36,0.00,,OVC110,0.02,VWS V14.01,2013-07-11 19:38:00,
2013-07-11 12:44:00,83.4,53.7,29.80,South,169,2.0,2.0,36,0.00,,OVC110,0.02,VWS V14.01,2013-07-11 19:44:00,
2013-07-11 12:49:00,84.2,55.9,29.80,SSE,163,2.0,5.0,38,0.00,,OVC110,0.02,VWS V14.01,2013-07-11 19:49:00,
2013-07-11 12:54:00,84.4,53.0,29.79,SSE,163,0.0,0.0,34,0.00,,OVC110,0.02,VWS V14.01,2013-07-11 19:54:00,
2013-07-11 13:00:00,85.1,52.8,29.79,South,169,1.0,2.0,33,0.00,,OVC110,0.02,VWS V14.01,2013-07-11 20:00:00,
2013-07-11 13:05:00,85.4,52.2,29.79,South,170,0.0,2.0,32,0.00,,BKN110,0.02,VWS V14.01,2013-07-11 20:05:00,
2013-07-11 13:11:00,85.8,52.6,29.79,South,175,0.0,1.0,32,0.00,,BKN110,0.02,VWS V14.01,2013-07-11 20:11:00,
2013-07-11 13:17:00,86.3,52.1,29.79,South,176,0.0,1.0,31,0.00,,BKN110,0.02,VWS V14.01,2013-07-11 20:17:00,
2013-07-11 13:22:00,86.8,51.7,29.79,South,181,2.0,4.0,30,0.00,,BKN110,0.02,VWS V14.01,2013-07-11 20:22:00,
2013-07-11 13:27:00,87.1,52.8,29.78,South,182,0.0,4.0,31,0.00,,BKN110,0.02,VWS V14.01,2013-07-11 20:27:00,
2013-07-11 13:32:00,87.2,53.8,29.78,SW,221,0.0,5.0,32,0.00,,BKN110,0.02,VWS V14.01,2013-07-11 20:32:00,
2013-07-11 13:37:00,87.0,53.6,29.78,SW,224,0.0,6.0,32,0.00,,BKN110,0.02,VWS V14.01,2013-07-11 20:37:00,
2013-07-11 13:43:00,86.9,53.5,29.78,SW,227,4.0,10.0,32,0.00,,BKN110,0.02,VWS V14.01,2013-07-11 20:43:00,
2013-07-11 13:49:00,87.3,54.7,29.78,SW,221,1.0,10.0,33,0.00,,BKN110,0.02,VWS V14.01,2013-07-11 20:49:00,
2013-07-11 13:55:00,87.4,54.0,29.78,SW,215,3.0,6.0,32,0.00,,BKN110,0.02,VWS V14.01,2013-07-11 20:55:00,
2013-07-11 14:00:00,87.6,53.3,29.78,SW,235,3.0,8.0,31,0.00,,BKN110,0.02,VWS V14.01,2013-07-11 21:00:00,
2013-07-11 14:05:00,87.4,53.1,29.77,SW,234,4.0,7.0,31,0.00,,CLR,0.02,VWS V14.01,2013-07-11 21:05:00,
2013-07-11 14:10:00,87.4,52.2,29.77,SW,236,0.0,0.0,30,0.00,,CLR,0.02,VWS V14.01,2013-07-11 21:10:00,
2013-07-11 14:15:00,87.8,53.4,29.77,SW,218,1.0,7.0,31,0.00,,CLR,0.02,VWS V14.01,2013-07-11 21:15:00,
2013-07-11 14:22:00,88.0,52.7,29.77,SW,234,2.0,7.0,30,0.00,,CLR,0.02,VWS V14.01,2013-07-11 21:22:00,
2013-07-11 14:27:00,87.9,53.5,29.76,SW,223,0.0,7.0,31,0.00,,CLR,0.02,VWS V14.01,2013-07-11 21:27:00,
2013-07-11 14:32:00,88.1,52.8,29.76,WSW,246,0.0,4.0,30,0.00,,CLR,0.02,VWS V14.01,2013-07-11 21:32:00,
2013-07-11 14:37:00,87.8,51.6,29.76,West,270,7.0,13.0,29,0.00,,CLR,0.02,VWS V14.01,2013-07-11 21:37:00,
2013-07-11 14:42:00,87.4,51.3,29.76,WSW,245,1.0,4.0,29,0.00,,CLR,0.02,VWS V14.01,2013-07-11 21:42:00,
2013-07-11 14:47:00,87.1,51.9,29.76,WSW,240,3.0,4.0,30,0.00,,CLR,0.02,VWS V14.01,2013-07-11 21:47:00,
2013-07-11 14:53:00,87.0,51.8,29.76,WSW,247,0.0,6.0,30,0.00,,CLR,0.02,VWS V14.01,2013-07-11 21:53:00,
2013-07-11 14:58:00,86.6,50.6,29.76,SW,235,2.0,7.0,29,0.00,,CLR,0.02,VWS V14.01,2013-07-11 21:58:00,
2013-07-11 15:03:00,86.5,50.5,29.76,WSW,244,3.0,4.0,29,0.00,,CLR,0.02,VWS V14.01,2013-07-11 22:03:00,
2013-07-11 15:08:00,86.3,50.3,29.76,WSW,240,4.0,6.0,29,0.00,,CLR,0.02,VWS V14.01,2013-07-11 22:08:00,
2013-07-11 15:13:00,86.1,50.2,29.76,SW,234,1.0,4.0,29,0.00,,CLR,0.02,VWS V14.01,2013-07-11 22:13:00,
2013-07-11 15:19:00,85.9,50.9,29.76,SW,219,1.0,6.0,30,0.00,,CLR,0.02,VWS V14.01,2013-07-11 22:19:00,
2013-07-11 15:25:00,85.7,50.7,29.75,SW,217,4.0,8.0,30,0.00,,CLR,0.02,VWS V14.01,2013-07-11 22:25:00,
2013-07-11 15:30:00,85.2,51.2,29.76,WSW,240,5.0,8.0,31,0.00,,CLR,0.02,VWS V14.01,2013-07-11 22:30:00,
2013-07-11 15:37:00,84.6,51.5,29.75,SSW,213,3.0,8.0,32,0.00,,CLR,0.02,VWS V14.01,2013-07-11 22:37:00,
2013-07-11 15:42:00,84.2,50.3,29.75,SW,236,7.0,17.0,31,0.00,,CLR,0.02,VWS V14.01,2013-07-11 22:42:00,
2013-07-11 15:47:00,83.7,50.7,29.75,SSW,205,8.0,17.0,32,0.00,,CLR,0.02,VWS V14.01,2013-07-11 22:47:00,
2013-07-11 15:53:00,83.4,51.3,29.75,SW,226,2.0,9.0,33,0.00,,CLR,0.02,VWS V14.01,2013-07-11 22:53:00,
2013-07-11 15:59:00,82.9,51.7,29.75,WSW,250,10.0,12.0,34,0.00,,CLR,0.02,VWS V14.01,2013-07-11 22:59:00,
2013-07-11 16:04:00,82.7,51.5,29.75,SW,225,3.0,10.0,34,0.00,,OVC110,0.02,VWS V14.01,2013-07-11 23:04:00,
2013-07-11 16:10:00,82.3,52.7,29.75,SSW,203,3.0,10.0,36,0.00,,OVC110,0.02,VWS V14.01,2013-07-11 23:10:00,
2013-07-11 16:15:00,81.9,53.8,29.75,SSW,212,0.0,11.0,38,0.00,,OVC110,0.02,VWS V14.01,2013-07-11 23:15:00,
2013-07-11 16:22:00,81.7,53.7,29.75,South,178,5.0,11.0,38,0.00,,OVC110,0.02,VWS V14.01,2013-07-11 23:22:00,
2013-07-11 16:27:00,81.6,52.8,29.74,SW,228,2.0,11.0,37,0.00,,OVC110,0.02,VWS V14.01,2013-07-11 23:27:00,
2013-07-11 16:32:00,81.7,53.7,29.75,SSW,207,2.0,5.0,38,0.00,,OVC110,0.02,VWS V14.01,2013-07-11 23:32:00,
2013-07-11 16:38:00,81.8,51.5,29.75,SW,232,6.0,11.0,35,0.00,,OVC110,0.02,VWS V14.01,2013-07-11 23:38:00,
2013-07-11 16:44:00,81.9,51.6,29.74,SW,228,4.0,10.0,35,0.00,,OVC110,0.02,VWS V14.01,2013-07-11 23:44:00,
2013-07-11 16:50:00,81.8,51.5,29.74,SW,230,1.0,12.0,35,0.00,,OVC110,0.02,VWS V14.01,2013-07-11 23:50:00,
2013-07-11 16:56:00,81.8,49.9,29.74,SW,236,8.0,10.0,33,0.00,,OVC110,0.02,VWS V14.01,2013-07-11 23:56:00,
2013-07-11 17:01:00,81.7,50.6,29.74,SW,219,3.0,19.0,34,0.00,,OVC110,0.02,VWS V14.01,2013-07-12 00:01:00,
2013-07-11 17:06:00,81.7,50.6,29.74,WSW,240,3.0,19.0,34,0.00,,OVC110,0.02,VWS V14.01,2013-07-12 00:06:00,
2013-07-11 17:12:00,81.9,50.0,29.73,WSW,244,5.0,11.0,33,0.00,,OVC110,0.02,VWS V14.01,2013-07-12 00:12:00,
2013-07-11 17:17:00,82.2,49.4,29.74,SW,219,5.0,11.0,32,0.00,,OVC110,0.02,VWS V14.01,2013-07-12 00:17:00,
2013-07-11 17:24:00,82.7,49.0,29.73,SSW,213,2.0,6.0,31,0.00,,OVC110,0.02,VWS V14.01,2013-07-12 00:24:00,
2013-07-11 17:29:00,83.0,49.3,29.73,SW,227,5.0,7.0,31,0.00,,OVC110,0.02,VWS V14.01,2013-07-12 00:29:00,
2013-07-11 17:36:00,82.9,49.2,29.73,WSW,247,1.0,13.0,31,0.00,,OVC110,0.02,VWS V14.01,2013-07-12 00:36:00,
2013-07-11 17:43:00,82.8,49.1,29.73,SSW,207,0.0,7.0,31,0.00,,OVC110,0.02,VWS V14.01,2013-07-12 00:43:00,
2013-07-11 17:50:00,82.6,49.8,29.73,WSW,246,4.0,11.0,32,0.00,,OVC110,0.02,VWS V14.01,2013-07-12 00:50:00,
2013-07-11 17:55:00,82.5,50.5,29.72,SW,221,4.0,14.0,33,0.00,,OVC110,0.02,VWS V14.01,2013-07-12 00:55:00,
2013-07-11 18:00:00,82.0,52.4,29.72,SW,232,6.0,14.0,36,0.00,,OVC110,0.02,VWS V14.01,2013-07-12 01:00:00,
2013-07-11 18:05:00,81.7,52.2,29.72,SW,231,5.0,11.0,36,0.00,,OVC110,0.02,VWS V14.01,2013-07-12 01:05:00,
2013-07-11 18:10:00,81.2,52.5,29.72,SSW,200,4.0,8.0,37,0.00,,OVC110,0.02,VWS V14.01,2013-07-12 01:10:00,
2013-07-11 18:16:00,81.1,51.7,29.72,SW,226,6.0,13.0,36,0.00,,OVC110,0.02,VWS V14.01,2013-07-12 01:16:00,
2013-07-11 18:21:00,80.7,50.5,29.72,SSW,210,1.0,16.0,35,0.00,,OVC110,0.02,VWS V14.01,2013-07-12 01:21:00,
2013-07-11 18:26:00,80.6,50.5,29.72,SW,234,4.0,16.0,35,0.00,,OVC110,0.02,VWS V14.01,2013-07-12 01:26:00,
2013-07-11 18:31:00,80.4,51.0,29.72,SW,219,2.0,10.0,36,0.00,,OVC110,0.02,VWS V14.01,2013-07-12 01:31:00,
2013-07-11 18:37:00,80.3,50.9,29.72,SW,234,2.0,12.0,36,0.00,,OVC110,0.02,VWS V14.01,2013-07-12 01:37:00,
2013-07-11 18:42:00,80.2,50.8,29.72,SW,223,7.0,14.0,36,0.00,,OVC110,0.02,VWS V14.01,2013-07-12 01:42:00,
2013-07-11 18:47:00,80.1,50.0,29.72,SW,219,7.0,14.0,35,0.00,,OVC110,0.02,VWS V14.01,2013-07-12 01:47:00,
2013-07-11 18:55:00,80.0,49.9,29.72,WSW,239,5.0,16.0,35,0.00,,OVC110,0.02,VWS V14.01,2013-07-12 01:55:00,
2013-07-11 19:00:00,79.9,51.3,29.72,SW,219,4.0,7.0,37,0.00,,OVC110,0.02,VWS V14.01,2013-07-12 02:00:00,
2013-07-11 19:05:00,79.8,50.5,29.72,South,186,3.0,12.0,36,0.00,,CLR,0.02,VWS V14.01,2013-07-12 02:05:00,
2013-07-11 19:11:00,79.7,51.2,29.72,SSW,200,7.0,13.0,37,0.00,,CLR,0.02,VWS V14.01,2013-07-12 02:11:00,
2013-07-11 19:16:00,79.6,51.1,29.72,SW,215,3.0,13.0,37,0.00,,CLR,0.02,VWS V14.01,2013-07-12 02:16:00,
2013-07-11 19:22:00,79.5,51.7,29.72,SW,234,4.0,8.0,38,0.00,,CLR,0.02,VWS V14.01,2013-07-12 02:22:00,
2013-07-11 19:27:00,79.4,51.6,29.72,SW,229,5.0,8.0,38,0.00,,CLR,0.02,VWS V14.01,2013-07-12 02:27:00,
2013-07-11 19:32:00,79.3,51.5,29.72,SSW,211,1.0,14.0,38,0.00,,CLR,0.02,VWS V14.01,2013-07-12 02:32:00,
2013-07-11 19:37:00,79.4,52.3,29.73,SW,228,3.0,14.0,39,0.00,,CLR,0.02,VWS V14.01,2013-07-12 02:37:00,
2013-07-11 19:42:00,79.5,51.7,29.72,SSW,209,7.0,14.0,38,0.00,,CLR,0.02,VWS V14.01,2013-07-12 02:42:00,
2013-07-11 19:47:00,79.4,51.6,29.72,SW,223,6.0,14.0,38,0.00,,CLR,0.02,VWS V14.01,2013-07-12 02:47:00,
2013-07-11 19:54:00,79.3,52.2,29.73,SW,232,2.0,7.0,39,0.00,,CLR,0.02,VWS V14.01,2013-07-12 02:54:00,
2013-07-11 19:59:00,79.0,52.0,29.73,SW,230,1.0,12.0,39,0.00,,CLR,0.02,VWS V14.01,2013-07-12 02:59:00,
2013-07-11 20:04:00,78.9,51.2,29.72,SW,224,4.0,13.0,38,0.00,,CLR,0.02,VWS V14.01,2013-07-12 03:04:00,
2013-07-11 20:10:00,78.7,51.0,29.73,SW,234,1.0,13.0,38,0.00,,CLR,0.02,VWS V14.01,2013-07-12 03:10:00,
2013-07-11 20:15:00,78.6,50.9,29.72,SW,233,4.0,12.0,38,0.00,,CLR,0.02,VWS V14.01,2013-07-12 03:15:00,
2013-07-11 20:20:00,78.5,50.1,29.72,SSW,212,14.0,15.0,37,0.00,,CLR,0.02,VWS V14.01,2013-07-12 03:20:00,
2013-07-11 20:27:00,78.4,50.7,29.72,SW,223,4.0,16.0,38,0.00,,CLR,0.02,VWS V14.01,2013-07-12 03:27:00,
2013-07-11 20:33:00,78.2,51.9,29.73,SW,234,6.0,18.0,40,0.00,,CLR,0.02,VWS V14.01,2013-07-12 03:33:00,
2013-07-11 20:38:00,77.9,52.3,29.73,SW,225,3.0,19.0,41,0.00,,CLR,0.02,VWS V14.01,2013-07-12 03:38:00,
2013-07-11 20:43:00,77.6,52.1,29.73,SSW,192,3.0,19.0,41,0.00,,CLR,0.02,VWS V14.01,2013-07-12 03:43:00,
2013-07-11 20:48:00,77.3,52.5,29.73,WSW,242,6.0,19.0,42,0.00,,CLR,0.02,VWS V14.01,2013-07-12 03:48:00,
2013-07-11 20:53:00,77.1,51.6,29.73,SW,232,7.0,19.0,41,0.00,,CLR,0.02,VWS V14.01,2013-07-12 03:53:00,
2013-07-11 21:00:00,77.1,50.3,29.73,SW,223,4.0,19.0,39,0.00,,CLR,0.02,VWS V14.01,2013-07-12 04:00:00,
2013-07-11 21:01:00,77.1,50.3,29.73,South,191,10.0,12.0,39,0.00,,CLR,0.02,VWS V14.01,2013-07-12 04:01:00,
2013-07-11 21:02:00,77.2,50.3,29.73,SW,223,3.0,14.0,39,0.00,,CLR,0.02,VWS V14.01,2013-07-12 04:02:00,
2013-07-11 21:03:00,77.2,51.0,29.73,South,181,7.0,14.0,40,0.00,,CLR,0.02,VWS V14.01,2013-07-12 04:03:00,
2013-07-11 21:04:00,77.2,51.0,29.73,SW,234,7.0,14.0,40,0.00,,CLR,0.02,VWS V14.01,2013-07-12 04:04:00,
2013-07-11 21:09:00,77.2,51.7,29.73,SW,227,13.0,15.0,41,0.00,,CLR,0.02,VWS V14.01,2013-07-12 04:09:00,
2013-07-11 21:14:00,77.1,51.6,29.74,SSW,212,2.0,11.0,41,0.00,,CLR,0.02,VWS V14.01,2013-07-12 04:14:00,
2013-07-11 21:15:00,77.1,50.9,29.74,SSW,207,5.0,11.0,40,0.00,,CLR,0.02,VWS V14.01,2013-07-12 04:15:00,
2013-07-11 21:20:00,77.0,50.9,29.74,SW,225,2.0,9.0,40,0.00,,CLR,0.02,VWS V14.01,2013-07-12 04:20:00,
2013-07-11 21:25:00,77.0,50.9,29.74,SSW,192,3.0,12.0,40,0.00,,CLR,0.02,VWS V14.01,2013-07-12 04:25:00,
2013-07-11 21:30:00,77.0,51.5,29.74,SW,229,4.0,7.0,41,0.00,,CLR,0.02,VWS V14.01,2013-07-12 04:30:00,
2013-07-11 21:35:00,76.9,50.8,29.74,South,178,19.0,19.0,40,0.00,,CLR,0.02,VWS V14.01,2013-07-12 04:35:00,
2013-07-11 21:40:00,76.8,50.7,29.75,SW,221,4.0,21.0,40,0.00,,CLR,0.02,VWS V14.01,2013-07-12 04:40:00,
2013-07-11 21:45:00,76.7,51.2,29.75,SW,216,0.0,21.0,41,0.00,,CLR,0.02,VWS V14.01,2013-07-12 04:45:00,
2013-07-11 21:50:00,76.6,51.2,29.75,SSE,167,8.0,8.0,41,0.00,,CLR,0.02,VWS V14.01,2013-07-12 04:50:00,
2013-07-11 21:55:00,76.6,50.5,29.75,SW,214,4.0,12.0,40,0.00,,CLR,0.02,VWS V14.01,2013-07-12 04:55:00,
2013-07-11 22:00:00,76.5,49.7,29.76,SW,218,7.0,13.0,39,0.00,,CLR,0.02,VWS V14.01,2013-07-12 05:00:00,
2013-07-11 22:05:00,76.6,49.8,29.76,SSW,205,8.0,17.0,39,0.00,,CLR,0.02,VWS V14.01,2013-07-12 05:05:00,
2013-07-11 22:11:00,76.5,50.4,29.76,SW,216,3.0,5.0,40,0.00,,CLR,0.02,VWS V14.01,2013-07-12 05:11:00,
2013-07-11 22:16:00,76.5,49.0,29.76,South,182,5.0,17.0,38,0.00,,CLR,0.02,VWS V14.01,2013-07-12 05:16:00,
2013-07-11 22:21:00,76.5,49.0,29.76,WSW,243,3.0,4.0,38,0.00,,CLR,0.02,VWS V14.01,2013-07-12 05:21:00,
2013-07-11 22:26:00,76.6,48.4,29.76,SW,218,11.0,20.0,37,0.00,,CLR,0.02,VWS V14.01,2013-07-12 05:26:00,
2013-07-11 22:31:00,76.7,49.2,29.76,South,182,1.0,11.0,38,0.00,,CLR,0.02,VWS V14.01,2013-07-12 05:31:00,
2013-07-11 22:36:00,76.6,49.1,29.76,SW,232,4.0,11.0,38,0.00,,CLR,0.02,VWS V14.01,2013-07-12 05:36:00,
2013-07-11 22:41:00,76.6,48.4,29.76,SW,220,3.0,13.0,37,0.00,,CLR,0.02,VWS V14.01,2013-07-12 05:41:00,
2013-07-11 22:46:00,76.6,49.1,29.76,SSW,205,3.0,13.0,38,0.00,,CLR,0.02,VWS V14.01,2013-07-12 05:46:00,
2013-07-11 22:51:00,76.6,48.4,29.76,SW,234,3.0,9.0,37,0.00,,CLR,0.02,VWS V14.01,2013-07-12 05:51:00,
2013-07-11 22:56:00,76.5,49.0,29.76,SW,230,10.0,16.0,38,0.00,,CLR,0.02,VWS V14.01,2013-07-12 05:56:00,
2013-07-11 23:01:00,76.5,49.0,29.76,SW,220,7.0,14.0,38,0.00,,CLR,0.02,VWS V14.01,2013-07-12 06:01:00,
2013-07-11 23:06:00,76.4,48.9,29.76,SSW,202,3.0,14.0,38,0.00,,CLR,0.02,VWS V14.01,2013-07-12 06:06:00,
2013-07-11 23:11:00,76.4,48.2,29.76,SW,221,8.0,11.0,37,0.00,,CLR,0.02,VWS V14.01,2013-07-12 06:11:00,
2013-07-11 23:16:00,76.3,49.5,29.76,SW,214,4.0,15.0,39,0.00,,CLR,0.02,VWS V14.01,2013-07-12 06:16:00,
2013-07-11 23:21:00,76.2,49.5,29.76,SSW,198,3.0,17.0,39,0.00,,CLR,0.02,VWS V14.01,2013-07-12 06:21:00,
2013-07-11 23:26:00,76.1,48.7,29.76,SSW,210,0.0,17.0,38,0.00,,CLR,0.02,VWS V14.01,2013-07-12 06:26:00,
2013-07-11 23:32:00,76.1,48.0,29.76,SW,215,4.0,11.0,37,0.00,,CLR,0.02,VWS V14.01,2013-07-12 06:32:00,
2013-07-11 23:37:00,76.1,48.0,29.76,SSW,211,8.0,11.0,37,0.00,,CLR,0.02,VWS V14.01,2013-07-12 06:37:00,
2013-07-11 23:42:00,76.2,46.6,29.76,SSW,200,2.0,12.0,35,0.00,,CLR,0.02,VWS V14.01,2013-07-12 06:42:00,
2013-07-11 23:47:00,76.3,46.7,29.76,SSW,198,2.0,12.0,35,0.00,,CLR,0.02,VWS V14.01,2013-07-12 06:47:00,
2013-07-11 23:52:00,76.3,46.7,29.76,SW,222,3.0,12.0,35,0.00,,CLR,0.02,VWS V14.01,2013-07-12 06:52:00,
2013-07-11 23:57:00,76.3,46.7,29.76,SW,222,0.0,12.0,35,0.00,,CLR,0.02,VWS V14.01,2013-07-12 06:57:00,